INTELSAT 9 (IS-9) (26451 NORAD) Tracking and Keplerian Element Data

This shows tracking and keplerian element data for the satellite.

Feedback or suggestion? Click here.




ElementValue
Catalog26451
NameINTELSAT 9 (IS-9)
Epoch Orbit6736
Epoch Day349.02892833
Epoch Year2018
RAAN68.6242
Inclination4.5978
Eccentricity0.000406
Argument of Perigee190.008
Mean Anonmoly240.8735
Mean Motion1.00397031
Decay Rate1.29E-06
L11 26451U 00043A 18349.02892833 .00000129 00000-0 00000+0 0 9996
L22 26451 4.5978 68.6242 0004060 190.0080 240.8735 1.00397031 67364

Live tracking and technical data element details for INTELSAT 9 (IS-9) (NORAD 26451). INTELSAT 9 (IS-9) can be tracked NOW for your location showing map with azimuth and elevation plus other details from your city location.

Track the satellite on the map from your city or location and see movement details for azimuth, elevation, latitude, longitude, range, height, and movement on the map or in text.







IsCatalogInMostPopularTable: catalog: 26451, numindb: 56
Update: records affected: 1



GetName: 26451 INTELSAT 9 (IS-9)

Hit Count: updated at: Sun, 16 Dec 2018 11:28:00 GMT